Great Bend, KS

9:27 AM CST on February 07, 2016 (GMT -0600)
Great Bend Municipal

Weather History for KGBD - December, 2012

Change the Weather History Date:

Wednesday, December 5, 2012

  Actual Average Record
Temperature  
Mean Temperature 46 °F -  
Max Temperature 62 °F 49 °F 71 °F (1989)
Min Temperature 30 °F 28 °F 1 °F (1964)
Degree Days  
Heating Degree Days 19    
Moisture  
Dew Point 21 °F    
Average Humidity 39    
Maximum Humidity 64    
Minimum Humidity 20    
Precipitation  
Precipitation 0.00 in - - ()
Sea Level Pressure  
Sea Level Pressure 30.09 in    
Wind  
Wind Speed 14 mph (South)    
Max Wind Speed 29 mph    
Max Gust Speed 34 mph    
Visibility 10 miles    
Events      
Averages and records for this station are not official NWS values.
T = Trace of Precipitation, MM = Missing Value Source: NWS Daily Summary

Daily Weather History Graph

Daily Weather History Graph

Search for Another Location

Airport or City:

Trip Planner

Search our weather history database for the weather conditions in past years. The results will help you decide how hot, cold, wet, or windy it might be!

Date:

Astronomy

Dec. 05, 2012 Rise Set
Actual Time 7:37 AM CST 5:14 PM CST
Civil Twilight 7:08 AM CST 5:44 PM CST
Nautical Twilight 6:35 AM CST 6:17 PM CST
Astronomical Twilight 6:03 AM CST 6:49 PM CST
Moon No Moon Rise 12:05 PM CST (12/5)
Length of Visible Light 10h 35m
Length of Day
9h 37m
Waning Gibbous, 59% of the Moon is Illuminated
Dec 5
Waning Gibbous
Dec 6
Last Quarter
Dec 13
New
Dec 19
First Quarter
Dec 28
Full

Hourly Weather History & Observations

Time (CST) Temp. Windchill Dew Point Humidity Pressure Visibility Wind Dir Wind Speed Gust Speed Precip Events Conditions
12:15 AM 30.2 °F 22.6 °F 19.4 °F 64% 30.29 in 10.0 mi SSW 8.1 mph - N/A   Clear
12:35 AM 30.2 °F 23.4 °F 19.4 °F 64% 30.29 in 10.0 mi SSW 6.9 mph - N/A   Clear
12:55 AM 33.8 °F 28.6 °F 17.6 °F 52% 30.29 in 10.0 mi SSW 5.8 mph - N/A   Clear
1:15 AM 33.8 °F 28.6 °F 19.4 °F 56% 30.28 in 10.0 mi SSW 5.8 mph - N/A   Clear
1:55 AM 32.0 °F 25.6 °F 17.6 °F 55% 30.27 in 10.0 mi SSW 6.9 mph - N/A   Clear
2:15 AM 33.8 °F 27.7 °F 17.6 °F 52% 30.26 in 10.0 mi SSW 6.9 mph - N/A   Clear
2:35 AM 32.0 °F 25.6 °F 17.6 °F 55% 30.27 in 10.0 mi SSW 6.9 mph - N/A   Clear
2:55 AM 33.8 °F 27.7 °F 19.4 °F 56% 30.27 in 10.0 mi SSW 6.9 mph - N/A   Clear
3:15 AM 33.8 °F 26.4 °F 17.6 °F 52% 30.27 in 10.0 mi SSW 9.2 mph - N/A   Clear
3:35 AM 33.8 °F 27.0 °F 19.4 °F 56% 30.27 in 10.0 mi SSW 8.1 mph - N/A   Clear
3:55 AM 33.8 °F 27.7 °F 17.6 °F 52% 30.26 in 10.0 mi SSW 6.9 mph - N/A   Clear
4:15 AM 33.8 °F 27.0 °F 17.6 °F 52% 30.25 in 10.0 mi South 8.1 mph - N/A   Clear
4:35 AM 30.2 °F 22.6 °F 17.6 °F 60% 30.24 in 10.0 mi South 8.1 mph - N/A   Clear
4:55 AM 30.2 °F 21.9 °F 17.6 °F 60% 30.24 in 10.0 mi South 9.2 mph - N/A   Clear
5:15 AM 30.2 °F 21.9 °F 17.6 °F 60% 30.25 in 10.0 mi SSW 9.2 mph - N/A   Clear
5:35 AM 30.2 °F 21.9 °F 17.6 °F 60% 30.25 in 10.0 mi South 9.2 mph - N/A   Clear
5:55 AM 30.2 °F 21.9 °F 17.6 °F 60% 30.24 in 10.0 mi South 9.2 mph - N/A   Clear
6:15 AM 33.8 °F 25.3 °F 19.4 °F 56% 30.24 in 10.0 mi South 11.5 mph - N/A   Clear
6:35 AM 35.6 °F 27.1 °F 19.4 °F 52% 30.24 in 10.0 mi South 12.7 mph - N/A   Clear
6:55 AM 37.4 °F 28.9 °F 21.2 °F 52% 30.24 in 10.0 mi South 13.8 mph - N/A   Clear
8:35 AM 42.8 °F 35.8 °F 24.8 °F 49% 30.21 in 10.0 mi South 13.8 mph - N/A   Clear
8:55 AM 44.6 °F 38.1 °F 24.8 °F 46% 30.22 in 10.0 mi South 13.8 mph - N/A   Clear
9:15 AM 46.4 °F 39.8 °F 24.8 °F 43% 30.20 in 10.0 mi South 16.1 mph - N/A   Clear
9:35 AM 48.2 °F - 24.8 °F 40% 30.21 in 10.0 mi South 16.1 mph - N/A   Clear
9:55 AM 50.0 °F - 24.8 °F 37% 30.21 in 10.0 mi South 17.3 mph - N/A   Clear
10:15 AM 50.0 °F - 24.8 °F 37% 30.20 in 10.0 mi South 20.7 mph - N/A   Clear
10:35 AM 53.6 °F - 24.8 °F 33% 30.19 in 10.0 mi South 20.7 mph 24.2 mph N/A   Clear
10:55 AM 55.4 °F - 24.8 °F 31% 30.18 in 10.0 mi South 24.2 mph 29.9 mph N/A   Clear
11:15 AM 57.2 °F - 24.8 °F 29% 30.17 in 10.0 mi South 24.2 mph 31.1 mph N/A   Clear
11:35 AM 57.2 °F - 24.8 °F 29% 30.15 in 10.0 mi South 26.5 mph 32.2 mph N/A   Clear
11:55 AM 57.2 °F - 23.0 °F 27% 30.13 in 10.0 mi South 26.5 mph 33.4 mph N/A   Clear
12:15 PM 59.0 °F - 23.0 °F 25% 30.12 in 10.0 mi South 28.8 mph 34.5 mph N/A   Clear
12:35 PM 60.8 °F - 23.0 °F 23% 30.10 in 10.0 mi South 27.6 mph 32.2 mph N/A   Clear
12:55 PM 60.8 °F - 21.2 °F 22% 30.08 in 10.0 mi South 27.6 mph 32.2 mph N/A   Clear
1:15 PM 60.8 °F - 21.2 °F 22% 30.07 in 10.0 mi South 27.6 mph 31.1 mph N/A   Clear
1:35 PM 60.8 °F - 21.2 °F 22% 30.06 in 10.0 mi South 26.5 mph 33.4 mph N/A   Clear
1:55 PM 60.8 °F - 21.2 °F 22% 30.05 in 10.0 mi South 21.9 mph - N/A   Clear
2:15 PM 60.8 °F - 21.2 °F 22% 30.03 in 10.0 mi South 25.3 mph - N/A   Clear
2:35 PM 60.8 °F - 21.2 °F 22% 30.02 in 10.0 mi South 25.3 mph 29.9 mph N/A   Clear
2:55 PM 62.6 °F - 21.2 °F 20% 30.01 in 10.0 mi South 23.0 mph 27.6 mph N/A   Clear
3:15 PM 60.8 °F - 21.2 °F 22% 30.02 in 10.0 mi South 19.6 mph - N/A   Clear
3:35 PM 60.8 °F - 21.2 °F 22% 30.00 in 10.0 mi South 21.9 mph 27.6 mph N/A   Clear
3:55 PM 59.0 °F - 21.2 °F 23% 29.99 in 10.0 mi South 21.9 mph 27.6 mph N/A   Clear
4:15 PM 57.2 °F - 21.2 °F 25% 29.98 in 10.0 mi SSE 23.0 mph - N/A   Clear
4:35 PM 55.4 °F - 21.2 °F 26% 29.98 in 10.0 mi SSE 19.6 mph 27.6 mph N/A   Clear
4:55 PM 55.4 °F - 21.2 °F 26% 29.96 in 10.0 mi SSE 21.9 mph - N/A   Clear
5:15 PM 53.6 °F - 21.2 °F 28% 29.97 in 10.0 mi SSE 19.6 mph 24.2 mph N/A   Clear
5:35 PM 53.6 °F - 21.2 °F 28% 29.96 in 10.0 mi SSE 18.4 mph - N/A   Clear
5:55 PM 51.8 °F - 21.2 °F 30% 29.96 in 10.0 mi South 19.6 mph - N/A   Clear
6:15 PM 51.8 °F - 21.2 °F 30% 29.96 in 10.0 mi South 17.3 mph - N/A   Clear
6:35 PM 50.0 °F - 21.2 °F 32% 29.96 in 10.0 mi South 19.6 mph - N/A   Clear
6:55 PM 48.2 °F - 21.2 °F 34% 29.96 in 10.0 mi South 17.3 mph - N/A   Clear
7:15 PM 48.2 °F - 21.2 °F 34% 29.95 in 10.0 mi SSE 18.4 mph - N/A   Clear
7:35 PM 48.2 °F - 21.2 °F 34% 29.95 in 10.0 mi SSE 16.1 mph - N/A   Clear
7:55 PM 48.2 °F - 21.2 °F 34% 29.94 in 10.0 mi SSE 16.1 mph 20.7 mph N/A   Clear
8:15 PM 46.4 °F 39.8 °F 21.2 °F 37% 29.94 in 10.0 mi South 16.1 mph - N/A   Clear
8:35 PM 46.4 °F 39.5 °F 21.2 °F 37% 29.94 in 10.0 mi South 17.3 mph - N/A   Clear
8:55 PM 48.2 °F - 21.2 °F 34% 29.95 in 10.0 mi South 17.3 mph - N/A   Clear
9:15 PM 46.4 °F 39.8 °F 21.2 °F 37% 29.94 in 10.0 mi South 16.1 mph - N/A   Clear
9:35 PM 46.4 °F 39.8 °F 21.2 °F 37% 29.93 in 10.0 mi South 16.1 mph - N/A   Clear
9:55 PM 46.4 °F 39.8 °F 21.2 °F 37% 29.93 in 10.0 mi South 16.1 mph - N/A   Clear
10:15 PM 46.4 °F 39.5 °F 21.2 °F 37% 29.90 in 10.0 mi South 17.3 mph - N/A   Clear
10:35 PM 46.4 °F 39.5 °F 21.2 °F 37% 29.90 in 10.0 mi South 17.3 mph - N/A   Clear
10:55 PM 46.4 °F 39.0 °F 21.2 °F 37% 29.89 in 10.0 mi South 19.6 mph 25.3 mph N/A   Clear
11:15 PM 46.4 °F 39.0 °F 21.2 °F 37% 29.89 in 10.0 mi South 19.6 mph - N/A   Clear
11:35 PM 46.4 °F 38.7 °F 21.2 °F 37% 29.88 in 10.0 mi South 20.7 mph - N/A   Clear
11:55 PM 46.4 °F 39.2 °F 21.2 °F 37% 29.87 in 10.0 mi South 18.4 mph - N/A   Clear